Location: Clear Lake Keys
(39.0207°N, 122.6625°W)
Time: 05:09:41
(UTC+00:00)

Daily predictions for brighter satellites

Satellite Brightness Start Highest point End
(mag) Time Altitude Azimuth Time Altitude Azimuth Time Altitude Azimuth
Meteor 2-5 Rocket 3.8 01:38:03 10° S 01:43:39 85° W 01:49:13 10° N
Cosmos 783 Rocket 4.5 01:39:46 10° NNW 01:45:00 70° ENE 01:50:13 10° SSE
CORIOLIS 4.2 01:40:19 10° SSE 01:45:43 79° ENE 01:51:07 10° N
Cosmos 2263 Rocket 3.2 01:42:15 10° SW 01:47:44 49° WNW 01:53:14 10° NNE
Cosmos 1726 Rocket 3.8 01:46:48 10° N 01:51:00 45° E 01:55:13 10° SSE
BREEZE-M DEB (TANK) 2.3 01:49:36 10° WNW 01:52:27 66° SSW 01:56:10 10° SE
NOAA 11 4.2 01:47:00 10° SSE 01:52:30 82° ENE 01:58:02 10° N
Aureole 2 Rocket 3.0 01:50:42 10° SSE 01:53:18 28° ESE 01:55:59 10° NE
CZ-4 R/B 2.8 01:52:48 10° ESE 01:55:41 19° ENE 01:58:32 10° NNE
Cosmos 1315 Rocket 2.8 01:52:27 10° N 01:56:28 89° WSW 02:00:29 10° S
Cosmos 2142 Rocket 4.4 01:50:35 10° N 01:56:46 76° E 02:02:52 10° SSE
Lacrosse 5 3.2 01:53:35 10° NNW 01:57:29 22° NNE 02:01:18 10° E
Nadezhda 4 Rocket 4.5 01:52:48 10° SSE 01:58:30 38° E 02:04:10 10° NNE
CZ-4C R/B 4.4 01:56:15 10° WNW 01:59:32 16° NNW 02:03:11 10° N
CZ-4B R/B 1.4 01:56:58 10° NNE 02:00:17 55° E 02:03:30 10° S
Cosmos 1689 Rocket 3.8 01:59:18 11° ENE 02:00:43 15° E 02:02:25 10° SE
Hubble Space Telescope 3.1 01:58:39 10° SSW 02:01:04 15° S 02:03:30 10° SE
ARGOS 4.5 02:00:04 10° ESE 02:03:29 17° ENE 02:06:54 10° NNE
TELKOM 3 4.1 02:03:30 10° W 02:05:38 35° NNW 02:07:40 12° NE
ATLAS 3B R/B 3.6 02:00:20 10° NW 02:07:12 57° WSW 02:14:18 10° SSE
COSMO-SKYMED 1 2.5 02:06:12 10° NNE 02:10:33 67° ESE 02:14:51 10° S
H-2A R/B 4.4 02:09:54 10° SSW 02:13:30 33° W 02:17:15 10° NNW
Cosmos 1943 3.9 02:08:33 10° NNW 02:14:08 60° WSW 02:19:39 10° S
CZ-2C R/B 4.1 02:13:16 13° ENE 02:16:04 18° E 02:19:43 10° SE
Meteor 1-24 Rocket 4.4 02:11:08 10° SSW 02:16:23 54° WNW 02:21:35 10° N
IRS-1C Rocket 4.2 02:13:30 10° SE 02:18:34 52° ENE 02:23:40 10° N
Okean-O 3.3 02:15:28 10° SE 02:19:23 32° ENE 02:23:19 10° N
Cosmos 1844 3.9 02:15:36 10° S 02:21:01 51° ESE 02:26:32 10° NNE
Okean O Rocket 2.9 02:17:20 10° S 02:21:35 45° W 02:25:52 10° NNW
COSMOS 2455 3.1 02:16:30 10° SW 02:22:30 71° WNW 02:28:33 10° NNE
CZ-2D R/B 3.1 02:21:42 10° SSE 02:25:32 72° ENE 02:29:22 10° N
SAR-Lupe-4 3.9 02:23:03 10° NNE 02:26:27 44° E 02:29:51 10° S
EXPRESS MD2 4.3 02:20:39 10° NW 02:28:16 50° NNE 02:30:47 22° E
Feng Yun 1-1 Rocket 4.2 02:23:59 10° SSE 02:29:23 88° ENE 02:34:55 10° NNW
Cosmos 1602 Rocket 4.1 02:31:35 10° SSE 02:35:27 34° E 02:37:46 20° NE
Cosmos 2026 Rocket 4.5 02:30:10 10° SSE 02:35:33 34° E 02:41:00 10° NNE
SAR-Lupe-1 4.0 02:34:06 12° NNE 02:37:17 61° ESE 02:40:48 10° S
CZ-2C R/B 3.1 02:32:42 10° SSE 02:37:54 84° ENE 02:43:27 10° N
H-2A R/B 2.1 02:33:33 10° SE 02:38:16 47° ENE 02:43:08 10° N
YAOGAN 1 2.7 02:35:01 10° SSE 02:39:10 49° ENE 02:43:21 10° N
Helios 1A Rocket 3.4 02:35:42 10° SE 02:39:31 38° ENE 02:43:22 10° N
Cosmos 923 Rocket 4.4 02:35:19 10° N 02:40:18 39° ENE 02:45:15 10° SE
Cosmos 1844 Rocket 2.7 02:36:11 10° SSW 02:41:51 84° WNW 02:47:33 10° NNE
Cosmos 158 Rocket 4.3 02:37:51 10° N 02:43:00 46° ENE 02:48:09 10° SE
Cosmos 1898 Rocket 4.0 02:38:23 10° SSE 02:43:13 37° ESE 02:45:28 25° NE
X-37B 1.0 02:43:04 10° W 02:46:13 53° NNW 02:46:57 41° NNE
Cosmos 1680 Rocket 4.1 02:42:47 10° N 02:47:32 34° ENE 02:48:55 29° E
Meteor 1-21 Rocket 4.1 02:42:52 10° S 02:48:23 77° E 02:53:56 10° NNE
Cosmos 2278 Rocket 3.8 02:48:05 10° SE 02:50:06 17° SE 02:50:06 17° SE
Cosmos 1818 4.0 02:48:24 10° SW 02:53:45 61° NW 02:58:16 15° NNE
SJ 16-02 1.9 02:52:41 10° SSW 02:57:02 59° WNW 03:01:11 11° N
NOSS 2-1 (C) 2.9 02:53:59 10° SSW 02:57:19 56° SE 02:57:19 56° SE
Cosmos 1455 2.1 02:54:12 10° N 02:58:01 86° W 03:01:51 10° S
Cosmos 1340 3.0 02:56:58 10° S 02:59:55 44° SE 02:59:55 44° SE
Cosmos 2195 Rocket 4.4 02:54:52 10° S 03:01:06 68° E 03:07:24 10° NNE
Meteor 2-10 Rocket 4.4 02:55:58 10° NNW 03:01:16 53° W 03:06:20 10° S
ISS -2.3 02:59:10 10° W 03:02:11 29° NNW 03:02:46 27° N
Cosmos 1703 3.1 02:58:41 10° S 03:02:33 83° E 03:04:09 34° NNE
NOSS 2-1 (D) 2.9 02:59:50 10° SSW 03:03:03 65° SSE 03:03:03 65° SSE
USA 267 3.4 03:01:01 32° ENE 03:03:55 53° SE 03:10:16 10° SSW
MOS 1 Rocket 4.4 03:00:57 10° N 03:04:58 39° WNW 03:08:57 10° SW
CSL-04 Rocket 3.6 02:59:50 10° SSE 03:05:04 57° ENE 03:10:25 10° N
Meteor 2-8 Rocket 4.4 02:59:21 10° N 03:05:20 54° E 03:11:17 10° SSE
SJ-11-01 4.1 03:01:05 10° SSE 03:05:47 82° ENE 03:10:29 10° N
Iridium 4 Rocket 3.5 03:02:11 10° N 03:07:45 61° E 03:12:51 10° SSE
Cosmos 1627 Rocket 4.3 03:05:33 10° S 03:11:39 73° E 03:17:53 10° N
ERS-2 4.0 03:10:07 10° N 03:13:20 30° WNW 03:16:31 10° SW
Cosmos 1428 Rocket 4.4 03:09:26 10° S 03:15:39 73° E 03:21:57 10° N
Cosmos 1937 Rocket 3.5 03:12:40 10° S 03:17:50 57° ESE 03:18:02 57° E
Cosmos 2112 Rocket 4.1 03:20:01 10° NNW 03:24:33 57° NNE 03:24:33 57° NNE
Cosmos 1092 Rocket 4.2 03:20:21 10° SSW 03:26:31 69° W 03:32:41 10° N
Cosmos 1328 4.2 03:25:40 10° SSW 03:29:30 63° W 03:29:30 63° W
Cosmos 44 3.5 03:25:35 10° SW 03:30:15 65° WNW 03:31:10 53° N
CZ-4 R/B 3.2 03:26:45 10° SSW 03:30:28 32° W 03:34:09 10° NNW
Cosmos 2344 4.5 03:26:58 10° NNW 03:36:19 53° NE 03:40:04 42° E
USA 234 4.3 03:37:03 28° NNE 03:37:03 28° NNE 03:42:11 10° NNW
Lacrosse 5 1.9 03:35:56 10° NW 03:40:34 74° WNW 03:40:34 74° WNW
Hubble Space Telescope 3.0 03:38:40 10° SW 03:40:42 18° SSW 03:40:42 18° SSW
ARGOS 3.6 03:37:56 10° S 03:43:12 60° W 03:48:32 10° NNW
CZ-3B R/B 3.0 03:41:24 10° NW 04:06:14 - SE 03:44:08 55° N
CZ-2C R/B 3.2 03:54:46 39° NNW 03:56:39 59° WNW 04:02:09 10° SSW
NOSS 3-1 (C) 4.2 04:24:56 10° NW 04:32:03 72° WNW 04:32:03 72° WNW
Cosmos 2278 Rocket 4.1 04:30:03 10° SW 04:32:01 22° SW 04:32:01 22° SW
USA 267 4.3 04:48:23 40° WNW 04:48:23 40° WNW 04:53:00 10° WSW
